THOR ABLESTAR DEB, 3810

Orbit data source: Space-Track

THOR ABLESTAR DEB, 3810 is space debris in LEO originally from a launch on Fri, 13 Aug 1965 UTC launched from the Air Force Western Test Range (AFWTR). Debris objects in space refer to the collection of defunct objects orbiting the Earth. Examples of debris include non-operational satellites, rocket bodies, and fragments generated from explosions, collisions, or faulty payload assembly.

Loading next visibility...
THOR ABLESTAR DEB details
Identifier
3810, 1965-065P
Orbit
LEO
Last TLE update12 hours ago
Origin
Flag of USUSN BuWeps (US)
ManufacturerUnknown
MissionSpacecraft
Bus & MotorUnknown
MassUnknown
Launch date (UTC)
1965-08-13 (59 years ago)
Launch vehicleUnknown
Launch site
Air Force Western Test Range (AFWTR)
Object type
Payload
Rocket body
Debris
Shape & HBRUnknown
Radar Cross SectionSmall (<0.1 m²)

Expand to show TLE details & history

TLE from 12 hours ago
0 THOR ABLESTAR DEB
1  3810U 65065P   24356.11339666  .00000803  00000-0  12054-2 0  9994
2  3810  89.9642 216.9770 0059238  60.8614  92.3926 13.51485322185500
Epoch: 2024-12-21T02:43Z
Definitive object data (Epoch: 2024-12-21T02:43:17.471Z)
Latitude26.09889°
Longitude-94.03246°
Altitude1,072.129 km
Speed7.317 km/s
True Right ascension02h 27m 50s
True Declination25° 58' 08"
Sunlit
Object was in full shadow at TLE epoch
Visualization TLE readout
Latitude48.26831°
Longitude86.02312°
Altitude1,031.143 km
Speed7.362 km/s
Apparent Right ascension19h 55m 07s
Apparent Declination54° 42' 01"
Sunlit
Object is in daylight
Visualization observer readout
Local Sidereal Time13:40:39
Azimuth41.609° NE
Elevation29.719°
Doppler factor1
Orbital elements
Apogee altitude1,107.931 km
Perigee altitude1,019.761 km
Semi-major axis7,441.983 km
Eccentricity0.0059238
Inclination89.9642°
RAAN216.977°
Arg. of periapsis60.8614°
True anomaly93.0706°
Mean anomaly92.3926°
Eccentric anomaly92.73162°
Mean motion3.38073 °/min
BSTAR0.0012054
Orbital period106.49 mins
Loading maneuver chart data...
Loading historical data...
Loading historical data...
Loading historical data...
Loading historical data...
Loading historical data...
Loading historical data...
Loading historical data...

THOR ABLESTAR DEB Visibility forecast

Observer location: undefined°, undefined

Span
Click to sort rows by Start time (UTC) header in descending order
Start Az.
Max El. time (UTC)
Max El. Az.
Max El.
End time (UTC)
End Az.
9 mins2024-12-21 16:18:30.110Z221.696° SW2024-12-21 16:22:30.110Z271.101° WNW28.101°2024-12-21 16:27:30.110Z333.43° NNW
5 mins2024-12-22 01:42:30.110Z54.984° ENE2024-12-22 01:44:30.110Z75.113° E14.938°2024-12-22 01:47:30.110Z104.649° ESE
11 mins2024-12-22 03:26:30.110Z358.652° N2024-12-22 03:31:30.110Z301.535° NW44.333°2024-12-22 03:37:30.110Z189.792° SSW
4 mins2024-12-22 13:41:30.110Z87.318° E2024-12-22 13:43:30.110Z66.511° ENE14.335°2024-12-22 13:45:30.110Z46.593° ENE
|